Location: Davidschlag
(48.4333°N, 14.2833°E)
Time: 16:54:53
(UTC+00:00)

Lacrosse 5 rocket - Pass Details

Date: 27 February 2020
Orbit: 462 x 635 km, 57.0° (Epoch: 29 March)

Event Time Altitude Azimuth Distance (km) Brightness Sun altitude
Rises 20:20:04 0° 302° (WNW) 2,916 6.0 -35.5°
Reaches altitude 10° 20:22:28 10° 295° (WNW) 2,017 4.9 -35.9°
Enters shadow 20:23:49 18° 286° (WNW) 1,557 4.2 -36.1°
